Tracking 29068 objects as of 20-Jul-2024
HD Live streaming from Space Station
objects crossing your sky now

OPS 2222

Track OPS 2222 now!
OPS 2222 is classified as:


NORAD ID: 3334
Int'l Code: 1968-063A
Perigee: 32,102.9 km
Apogee: 40,061.8 km
Inclination: 7.7 °
Period: 1,450.9 minutes
Semi major axis: 42453 km
RCS: Unknown
Launch date: August 6, 1968
Source: United States (US)
Launch site: AIR FORCE EASTERN TEST RANGE (AFETR)
Your satellite tracking list
Your tracking list is empty




NASA's NSSDC Master Catalog

Two Line Element Set (TLE):
1 03334U 68063A   24200.19801694 -.00000177  00000-0  00000-0 0  9998
2 03334   7.7203 290.5913 0937373 211.1052 153.3362  0.99251075 19198
Source of the keplerian elements: McCants